Regional Weather Roundup
Issued by NWS Kansas City/Pleasant Hill, MO

Home | Current Version | Previous Version | Text Only | Print | Product List | Glossary On
Versions: 1 2 3 4 5 6 7 8 9 10 11 12 13 14 15 16 17 18 19 20 21 22 23 24 25 26 27 28 29 30 31 32 33 34 35 36 37 38 39 40 41 42 43 44 45 46 47 48 49 50
000
ASUS43 KEAX 161511
RWREAX

WEATHER ROUNDUP FOR EASTERN KANSAS AND NORTHWEST MISSOURI
NATIONAL WEATHER SERVICE KANSAS CITY/PLEASANT HILL MO
1000 AM CDT TUE SEP 16 2014

KSZ040-057-103>105-MOZ028-029-037-043-161600-
...KANSAS CITY METROPOLITAN AREA...

CITY           SKY/WX    TMP DP  RH WIND       PRES   REMARKS
K.C. INTL      MOSUNNY   57  51  80 SE8       30.24S
K.C. DOWNTOWN  SUNNY     59  51  75 E5        30.24F
LEES SUMMIT    SUNNY     57  51  80 E5        30.25S
OLATHE - IXD   SUNNY     58  51  78 E8        30.24F
OLATHE - OJC   SUNNY     57  51  80 E7        30.23F
LAWRENCE       SUNNY     58  51  78 E7        30.24F

$$

MOZ001>008-011>017-020>025-030>033-038>040-044>046-053-054-161600-
...NORTHERN AND CENTRAL MISSOURI...

CITY           SKY/WX    TMP DP  RH WIND       PRES   REMARKS
ST. JOSEPH     SUNNY     57  50  77 SE3       30.25S
MOSBY          MOSUNNY   59  50  72 E5        30.25S
WARRENSBURG    MOSUNNY   59  50  72 NE6       30.24S
WHITEMAN AFB   PTSUNNY   59  52  77 VRB5      30.24R
CLINTON        CLOUDY    61  55  82 CALM      30.24R
SEDALIA        CLOUDY    59  53  80 E6        30.24S
WARSAW         NOT AVBL
MARSHALL       SUNNY     61  52  72 NE8       30.25F
CHILLICOTHE      N/A     58  51  78 E5        30.27S
MOBERLY        MOSUNNY   59  48  67 E7        30.26R
KIRKSVILLE     SUNNY     58  47  66 E6        30.26S

$$

MOZ041-047>049-056>058-063>065-088>090-097-161600-
...EASTERN AND SOUTHERN MISSOURI...

CITY           SKY/WX    TMP DP  RH WIND       PRES   REMARKS
ST. LOUIS INTL CLOUDY    61  54  77 CALM      30.23S
SPIRIT OF STL  CLOUDY    60  55  83 NE3       30.22S
COLUMBIA       MOSUNNY   58  51  78 E5        30.24S
JEFFERSON CITY CLOUDY    59  51  75 E3        30.24S
MEXICO         CLOUDY    59  55  88 NE3       30.25R
HANNIBAL       MOSUNNY   59  52  77 NE3       30.26S
ROLLA          CLOUDY    56  55  97 NE6       30.21S FOG
LEBANON        FOG       59  57  94 NE6       30.22  VSB 1
OSAGE BEACH    CLOUDY    57  54  88 NE7       30.23S
SPRINGFIELD    CLOUDY    64  57  78 NE10      30.20R
BRANSON        CLOUDY    64  61  88 NE5       30.19S
NEVADA         CLOUDY    59  55  88 NE8       30.23S
JOPLIN         CLOUDY    59  58  96 NE7       30.21R FOG
WEST PLAINS    CLOUDY    64  56  75 E7        30.21S

$$

IAZ060-094-KSZ022-034>040-054-083-096-NEZ052-066-093-161600-
...KANSAS...SOUTHEAST NEBRASKA AND IOWA...

CITY           SKY/WX    TMP DP  RH WIND       PRES   REMARKS
TOPEKA         SUNNY     58  52  80 E6        30.25S
MANHATTAN      SUNNY     56  50  80 CALM      30.24S
EMPORIA        SUNNY     58  51  78 E10       30.22F
CHANUTE        CLOUDY    63  55  75 NE7       30.21S
WICHITA        CLOUDY    61  51  70 E5        30.21R
OMAHA          SUNNY     54  48  80 S8        30.24F
LINCOLN        SUNNY     55  48  77 S7        30.24S
FALLS CITY     SUNNY     55  49  80 SE6       30.24S
LAMONI         SUNNY     57  49  74 E3        30.25S
DES MOINES     SUNNY     56  49  77 VRB3      30.24F

$$



USA.gov is the U.S. government's official web portal to all federal, state and local government web resources and services.